Regional Weather Roundup
Issued by NWS

Home | Current Version | Previous Version | Graphics & Text | Print | Product List | Glossary On
Versions: 1 2 3 4 5 6 7 8 9 10 11 12 13 14 15 16 17 18 19 20 21 22 23 24 25 26 27 28 29 30 31 32 33 34 35 36 37 38 39 40 41 42 43 44 45 46 47 48 49 50
000
ASUS43 KFSD 270510
RWRSD

WEATHER ROUNDUP FOR SOUTH DAKOTA
NATIONAL WEATHER SERVICE SIOUX FALLS SD
1200 AM CDT MON APR 27 2015

NOTE: "FAIR" INDICATES FEW OR NO CLOUDS BELOW 12,000 FEET WITH NO
SIGNIFICANT WEATHER AND/OR OBSTRUCTIONS TO VISIBILITY.


SDZ001>005-009-010-012>017-270600-
NORTHWEST AND NORTH CENTRAL SOUTH DAKOTA

CITY           SKY/WX    TMP DP  RH WIND       PRES   REMARKS
BUFFALO          N/A     45  43  93 N3        30.11R
FAITH            N/A     51  36  56 SE8       30.13R
MOBRIDGE       PTCLDY    45  34  65 E3        30.11R
$$

SDZ012>016-024>037-041>051-057-063-072>074-270600-
SOUTHWEST AND SOUTH CENTRAL SOUTH DAKOTA

CITY           SKY/WX    TMP DP  RH WIND       PRES   REMARKS
RAPID CTY ARPT CLOUDY    46  43  89 N5        30.14R
PIERRE         MOCLDY    43  33  68 CALM      30.12R
CUSTER         CLOUDY    39  37  92 E3        30.16R
ELLSWORTH AFB  CLOUDY    46  46  99 W2        30.14R
PHILIP         CLOUDY    53  39  59 CALM      30.13R
PINE RIDGE     CLOUDY    44  39  82 NE3       30.14R
SPEARFISH      CLOUDY    45  43  93 CALM      30.16R
WINNER         FAIR      48  29  47 S7        30.14R
$$

SDZ004>011-016>023-039-040-270600-
NORTHEAST SOUTH DAKOTA

CITY           SKY/WX    TMP DP  RH WIND       PRES   REMARKS
ABERDEEN       PTCLDY    43  31  62 SE7       30.15R
WATERTOWN      CLEAR     47  23  38 CALM      30.15R
BROOKINGS      CLEAR     46  27  46 E7        30.16R
SISSETON         N/A     38  28  67 CALM      30.15R
$$

SDZ017-020-022-023-036>040-048>070-270600-
SOUTHEAST SOUTH DAKOTA

CITY           SKY/WX    TMP DP  RH WIND       PRES   REMARKS
SIOUX FALLS    CLEAR     46  29  51 N5        30.13R
HURON          PTCLDY    47  31  53 E7        30.14R
CHAMBERLAIN    PTCLDY    40  31  70 SW3       30.14R
MITCHELL       CLEAR     47  35  63 E7        30.14R
YANKTON        CLEAR     48  28  46 CALM      30.13R
$$

ABBREVIATIONS USED IN REMARKS
   TC - TEMPERATURE IN CELSIUS
  WCI - WIND CHILL INDEX
   HX - HEAT INDEX
  VSB - VISIBILITY



USA.gov is the U.S. government's official web portal to all federal, state and local government web resources and services.